Time,TemperatureF,DewpointF,PressureIn,WindDirection,WindDirectionDegrees,WindSpeedMPH,WindSpeedGustMPH,Humidity,HourlyPrecipIn,Conditions,Clouds,dailyrainin,SoftwareType,DateUTC
2013-02-01 00:03:00,23.0,21.0,29.72,SSW,213,6.0,20.0,90,0.00,,,-99.99,,2013-02-01 05:03:00,
2013-02-01 00:12:00,23.0,21.0,29.72,SSW,213,6.0,20.0,90,0.00,,,-99.99,,2013-02-01 05:12:00,
2013-02-01 00:22:00,23.0,21.0,29.72,SW,214,6.0,15.0,90,0.00,,,-99.99,,2013-02-01 05:22:00,
2013-02-01 00:32:00,23.0,21.0,29.71,SSW,212,6.0,16.0,91,0.00,,,-99.99,,2013-02-01 05:32:00,
2013-02-01 00:42:00,23.0,21.0,29.71,SSW,212,6.0,16.0,91,0.00,,,-99.99,,2013-02-01 05:42:00,
2013-02-01 00:52:00,23.0,21.0,29.70,SSW,212,4.0,10.0,92,0.00,,,-99.99,,2013-02-01 05:52:00,
2013-02-01 01:02:00,22.0,20.0,29.70,SSW,212,2.0,10.0,92,0.00,,,-99.99,,2013-02-01 06:02:00,
2013-02-01 01:11:00,22.0,20.0,29.70,SSW,212,2.0,10.0,92,0.00,,,-99.99,,2013-02-01 06:11:00,
2013-02-01 01:22:00,22.0,20.0,29.70,SW,226,1.0,7.0,93,0.00,,,-99.99,,2013-02-01 06:22:00,
2013-02-01 01:32:00,22.0,21.0,29.70,South,187,3.0,11.0,94,0.00,,,-99.99,,2013-02-01 06:32:00,
2013-02-01 01:42:00,22.0,21.0,29.70,South,187,3.0,11.0,94,0.00,,,-99.99,,2013-02-01 06:42:00,
2013-02-01 01:52:00,21.0,20.0,29.70,South,186,1.0,7.0,94,0.00,,,-99.99,,2013-02-01 06:52:00,
2013-02-01 02:02:00,21.0,20.0,29.70,East,90,1.0,10.0,94,0.00,,,-99.99,,2013-02-01 07:02:00,
2013-02-01 02:12:00,21.0,20.0,29.70,SW,218,0.0,5.0,94,0.00,,,-99.99,,2013-02-01 07:12:00,
2013-02-01 02:22:00,21.0,20.0,29.70,SW,218,0.0,5.0,94,0.00,,,-99.99,,2013-02-01 07:22:00,
2013-02-01 02:32:00,21.0,20.0,29.70,SW,219,1.0,12.0,94,0.00,,,-99.99,,2013-02-01 07:32:00,
2013-02-01 02:42:00,21.0,20.0,29.70,SW,219,1.0,12.0,94,0.00,,,-99.99,,2013-02-01 07:42:00,
2013-02-01 02:52:00,21.0,20.0,29.70,ENE,63,0.0,6.0,94,0.00,,,-99.99,,2013-02-01 07:52:00,
2013-02-01 03:01:00,21.0,20.0,29.71,SW,214,0.0,8.0,94,0.00,,,-99.99,,2013-02-01 08:01:00,
2013-02-01 03:11:00,21.0,20.0,29.71,SW,214,0.0,8.0,94,0.00,,,-99.99,,2013-02-01 08:11:00,
2013-02-01 03:21:00,20.0,19.0,29.71,SSE,147,6.0,15.0,94,0.00,,,-99.99,,2013-02-01 08:21:00,
2013-02-01 03:32:00,20.0,19.0,29.72,WSW,243,0.0,8.0,94,0.00,,,-99.99,,2013-02-01 08:32:00,
2013-02-01 03:42:00,20.0,19.0,29.72,WSW,243,0.0,8.0,94,0.00,,,-99.99,,2013-02-01 08:42:00,
2013-02-01 03:52:00,20.0,19.0,29.72,SW,223,1.0,9.0,94,0.00,,,-99.99,,2013-02-01 08:52:00,
2013-02-01 04:01:00,20.0,19.0,29.73,SSW,208,1.0,11.0,94,0.00,,,-99.99,,2013-02-01 09:01:00,
2013-02-01 04:11:00,20.0,19.0,29.73,SSW,208,1.0,11.0,94,0.00,,,-99.99,,2013-02-01 09:11:00,
2013-02-01 04:21:00,20.0,19.0,29.73,SW,218,0.0,5.0,94,0.00,,,-99.99,,2013-02-01 09:21:00,
2013-02-01 04:32:00,20.0,19.0,29.74,SW,224,0.0,3.0,94,0.00,,,-99.99,,2013-02-01 09:32:00,
2013-02-01 04:42:00,20.0,19.0,29.74,SW,224,0.0,3.0,94,0.00,,,-99.99,,2013-02-01 09:42:00,
2013-02-01 04:52:00,19.0,18.0,29.76,South,172,6.0,17.0,94,0.00,,,-99.99,,2013-02-01 09:52:00,
2013-02-01 05:01:00,18.0,17.0,29.78,SSW,196,2.0,12.0,94,0.00,,,-99.99,,2013-02-01 10:01:00,
2013-02-01 05:11:00,18.0,17.0,29.78,SSW,196,2.0,12.0,94,0.00,,,-99.99,,2013-02-01 10:11:00,
2013-02-01 05:21:00,18.0,17.0,29.78,South,189,5.0,18.0,94,0.00,,,-99.99,,2013-02-01 10:21:00,
2013-02-01 05:32:00,17.0,15.0,29.79,SSW,200,6.0,17.0,93,0.00,,,-99.99,,2013-02-01 10:32:00,
2013-02-01 05:42:00,17.0,15.0,29.79,SSW,200,6.0,17.0,93,0.00,,,-99.99,,2013-02-01 10:42:00,
2013-02-01 05:53:00,17.0,15.0,29.80,SW,214,3.0,10.0,93,0.00,,,-99.99,,2013-02-01 10:53:00,
2013-02-01 06:02:00,17.0,15.0,29.81,SW,214,3.0,11.0,93,0.00,,,-99.99,,2013-02-01 11:02:00,
2013-02-01 06:11:00,17.0,15.0,29.81,SW,214,3.0,11.0,93,0.00,,,-99.99,,2013-02-01 11:11:00,
2013-02-01 06:22:00,16.0,14.0,29.83,SSW,198,7.0,21.0,93,0.00,,,-99.99,,2013-02-01 11:22:00,
2013-02-01 06:32:00,16.0,14.0,29.84,SSW,211,7.0,15.0,92,0.00,,,-99.99,,2013-02-01 11:32:00,
2013-02-01 06:42:00,16.0,14.0,29.84,SSW,211,7.0,15.0,92,0.00,,,-99.99,,2013-02-01 11:42:00,
2013-02-01 06:53:00,16.0,14.0,29.85,South,179,8.0,18.0,92,0.00,,,-99.99,,2013-02-01 11:53:00,
2013-02-01 07:03:00,15.0,13.0,29.86,SSW,200,9.0,28.0,91,0.00,,,-99.99,,2013-02-01 12:03:00,
2013-02-01 07:12:00,15.0,13.0,29.86,SSW,200,9.0,28.0,91,0.00,,,-99.99,,2013-02-01 12:12:00,
2013-02-01 07:22:00,15.0,13.0,29.86,SW,218,9.0,21.0,91,0.00,,,-99.99,,2013-02-01 12:22:00,
2013-02-01 07:32:00,14.0,12.0,29.88,SSW,200,6.0,13.0,92,0.00,,,-99.99,,2013-02-01 12:32:00,
2013-02-01 07:42:00,14.0,12.0,29.88,SSW,200,6.0,13.0,92,0.00,,,-99.99,,2013-02-01 12:42:00,
2013-02-01 07:52:00,14.0,12.0,29.89,SSW,212,6.0,15.0,92,0.00,,,-99.99,,2013-02-01 12:52:00,
2013-02-01 08:02:00,14.0,12.0,29.91,SSW,197,6.0,13.0,92,0.00,,,-99.99,,2013-02-01 13:02:00,
2013-02-01 08:11:00,14.0,12.0,29.91,SSW,197,6.0,13.0,92,0.00,,,-99.99,,2013-02-01 13:11:00,
2013-02-01 08:22:00,14.0,12.0,29.91,SSW,210,5.0,13.0,92,0.00,,,-99.99,,2013-02-01 13:22:00,
2013-02-01 08:33:00,14.0,12.0,29.92,SSW,210,6.0,14.0,93,0.00,,,-99.99,,2013-02-01 13:33:00,
2013-02-01 08:42:00,14.0,12.0,29.92,SSW,210,6.0,14.0,93,0.00,,,-99.99,,2013-02-01 13:42:00,
2013-02-01 08:53:00,14.0,12.0,29.92,SSW,210,6.0,14.0,93,0.00,,,-99.99,,2013-02-01 13:53:00,
2013-02-01 09:03:00,14.0,12.0,29.94,SSW,211,8.0,19.0,92,0.00,,,-99.99,,2013-02-01 14:03:00,
2013-02-01 09:11:00,14.0,12.0,29.94,SW,214,7.0,24.0,92,0.00,,,-99.99,,2013-02-01 14:11:00,
2013-02-01 09:22:00,14.0,12.0,29.94,SW,214,7.0,24.0,92,0.00,,,-99.99,,2013-02-01 14:22:00,
2013-02-01 09:32:00,14.0,12.0,29.96,SW,214,6.0,17.0,91,0.05,,,-99.99,,2013-02-01 14:32:00,
2013-02-01 09:42:00,14.0,12.0,29.96,SW,214,6.0,17.0,91,0.05,,,-99.99,,2013-02-01 14:42:00,
2013-02-01 09:53:00,14.0,12.0,29.96,SSW,205,7.0,22.0,91,0.05,,,-99.99,,2013-02-01 14:53:00,
2013-02-01 10:02:00,14.0,12.0,29.97,SSW,193,7.0,20.0,91,0.05,,,-99.99,,2013-02-01 15:02:00,
2013-02-01 10:12:00,14.0,12.0,29.98,South,183,6.0,14.0,91,0.05,,,-99.99,,2013-02-01 15:12:00,
2013-02-01 10:22:00,14.0,12.0,29.98,South,183,6.0,14.0,91,0.05,,,-99.99,,2013-02-01 15:22:00,
2013-02-01 10:33:00,14.0,12.0,29.99,South,182,6.0,19.0,91,0.00,,,-99.99,,2013-02-01 15:33:00,
2013-02-01 10:42:00,14.0,12.0,29.99,South,182,6.0,19.0,91,0.00,,,-99.99,,2013-02-01 15:42:00,
2013-02-01 10:52:00,15.0,13.0,30.01,SW,221,9.0,23.0,90,0.00,,,-99.99,,2013-02-01 15:52:00,
2013-02-01 11:03:00,15.0,13.0,30.01,SW,220,8.0,21.0,90,0.00,,,-99.99,,2013-02-01 16:03:00,
2013-02-01 11:11:00,16.0,13.0,30.01,SSW,206,8.0,24.0,89,0.00,,,-99.99,,2013-02-01 16:11:00,
2013-02-01 11:22:00,16.0,13.0,30.01,SSW,206,8.0,24.0,89,0.00,,,-99.99,,2013-02-01 16:22:00,
2013-02-01 11:33:00,16.0,13.0,30.01,SSW,208,7.0,16.0,89,0.00,,,-99.99,,2013-02-01 16:33:00,
2013-02-01 11:43:00,16.0,13.0,30.01,SSW,210,6.0,15.0,89,0.00,,,-99.99,,2013-02-01 16:43:00,
2013-02-01 11:52:00,16.0,13.0,30.01,SSW,210,6.0,15.0,89,0.00,,,-99.99,,2013-02-01 16:52:00,
2013-02-01 12:02:00,16.0,13.0,30.02,SSW,208,7.0,18.0,88,0.00,,,-99.99,,2013-02-01 17:02:00,
2013-02-01 12:12:00,16.0,13.0,30.02,SSW,198,6.0,17.0,87,0.00,,,-99.99,,2013-02-01 17:12:00,
2013-02-01 12:22:00,16.0,13.0,30.02,SSW,198,6.0,17.0,87,0.00,,,-99.99,,2013-02-01 17:22:00,
2013-02-01 12:32:00,16.0,13.0,30.02,SSW,207,8.0,17.0,89,0.00,,,-99.99,,2013-02-01 17:32:00,
2013-02-01 12:42:00,16.0,13.0,30.02,SSW,207,8.0,17.0,89,0.00,,,-99.99,,2013-02-01 17:42:00,
2013-02-01 12:53:00,17.0,14.0,30.02,SSW,196,6.0,18.0,88,0.00,,,-99.99,,2013-02-01 17:53:00,
2013-02-01 13:03:00,17.0,14.0,30.03,South,184,5.0,18.0,88,0.00,,,-99.99,,2013-02-01 18:03:00,
2013-02-01 13:22:00,17.0,14.0,30.03,SW,221,8.0,24.0,88,0.00,,,-99.99,,2013-02-01 18:22:00,
2013-02-01 13:32:00,17.0,14.0,30.04,SSW,201,7.0,18.0,88,0.03,,,-99.99,,2013-02-01 18:32:00,
2013-02-01 13:53:00,17.0,14.0,30.04,SSW,207,6.0,15.0,88,0.03,,,-99.99,,2013-02-01 18:53:00,
2013-02-01 14:03:00,18.0,14.0,30.04,South,172,6.0,21.0,85,0.03,,,-99.99,,2013-02-01 19:03:00,
2013-02-01 14:21:00,17.0,13.0,30.05,SSW,199,6.0,20.0,85,0.03,,,-99.99,,2013-02-01 19:21:00,
2013-02-01 14:32:00,17.0,13.0,30.06,SSW,208,7.0,21.0,85,0.00,,,-99.99,,2013-02-01 19:32:00,
2013-02-01 14:52:00,17.0,13.0,30.06,SW,214,9.0,20.0,85,0.00,,,-99.99,,2013-02-01 19:52:00,
2013-02-01 15:02:00,17.0,13.0,30.06,SSW,198,6.0,19.0,84,0.00,,,-99.99,,2013-02-01 20:02:00,
2013-02-01 15:11:00,17.0,13.0,30.07,SSW,195,6.0,20.0,84,0.00,,,-99.99,,2013-02-01 20:11:00,
2013-02-01 15:21:00,17.0,13.0,30.07,SSW,195,6.0,20.0,84,0.00,,,-99.99,,2013-02-01 20:21:00,
2013-02-01 15:32:00,17.0,13.0,30.09,SSW,213,7.0,17.0,84,0.00,,,-99.99,,2013-02-01 20:32:00,
2013-02-01 15:42:00,17.0,13.0,30.09,SSW,213,4.0,14.0,83,0.00,,,-99.99,,2013-02-01 20:42:00,
2013-02-01 15:52:00,17.0,13.0,30.09,SSW,213,4.0,14.0,83,0.00,,,-99.99,,2013-02-01 20:52:00,
2013-02-01 16:02:00,17.0,13.0,30.09,SW,217,6.0,21.0,83,0.00,,,-99.99,,2013-02-01 21:02:00,
2013-02-01 16:22:00,16.0,11.0,30.09,South,175,4.0,14.0,82,0.00,,,-99.99,,2013-02-01 21:22:00,
2013-02-01 16:32:00,16.0,12.0,30.10,SW,215,6.0,19.0,83,0.00,,,-99.99,,2013-02-01 21:32:00,
2013-02-01 16:42:00,16.0,12.0,30.10,SW,215,6.0,19.0,83,0.00,,,-99.99,,2013-02-01 21:42:00,
2013-02-01 16:52:00,16.0,11.0,30.10,SSW,201,6.0,15.0,82,0.00,,,-99.99,,2013-02-01 21:52:00,
2013-02-01 17:02:00,15.0,11.0,30.11,South,177,3.0,12.0,83,0.00,,,-99.99,,2013-02-01 22:02:00,
2013-02-01 17:11:00,15.0,11.0,30.11,SSW,205,5.0,15.0,84,0.00,,,-99.99,,2013-02-01 22:11:00,
2013-02-01 17:21:00,15.0,11.0,30.11,SSW,205,5.0,15.0,84,0.00,,,-99.99,,2013-02-01 22:21:00,
2013-02-01 17:32:00,15.0,11.0,30.11,SSW,208,4.0,10.0,84,0.00,,,-99.99,,2013-02-01 22:32:00,
2013-02-01 17:42:00,15.0,11.0,30.11,SSW,208,4.0,10.0,84,0.00,,,-99.99,,2013-02-01 22:42:00,
2013-02-01 17:52:00,14.0,11.0,30.12,SSW,197,2.0,9.0,86,0.00,,,-99.99,,2013-02-01 22:52:00,
2013-02-01 18:01:00,13.0,10.0,30.12,SW,214,6.0,16.0,87,0.00,,,-99.99,,2013-02-01 23:01:00,
2013-02-01 18:11:00,13.0,10.0,30.12,SW,214,6.0,16.0,87,0.00,,,-99.99,,2013-02-01 23:11:00,
2013-02-01 18:21:00,13.0,10.0,30.14,SW,214,6.0,14.0,88,0.00,,,-99.99,,2013-02-01 23:21:00,
2013-02-01 18:32:00,13.0,10.0,30.14,SSW,192,0.0,7.0,87,0.00,,,-99.99,,2013-02-01 23:32:00,
2013-02-01 18:42:00,13.0,10.0,30.14,SSW,192,0.0,7.0,87,0.00,,,-99.99,,2013-02-01 23:42:00,
2013-02-01 18:52:00,13.0,10.0,30.14,SSW,203,4.0,12.0,88,0.00,,,-99.99,,2013-02-01 23:52:00,
2013-02-01 19:02:00,13.0,10.0,30.15,SW,217,4.0,10.0,89,0.00,,,-99.99,,2013-02-02 00:02:00,
2013-02-01 19:11:00,13.0,10.0,30.15,SW,217,4.0,10.0,89,0.00,,,-99.99,,2013-02-02 00:11:00,
2013-02-01 19:21:00,13.0,10.0,30.16,SSW,203,1.0,8.0,88,0.00,,,-99.99,,2013-02-02 00:21:00,
2013-02-01 19:32:00,13.0,10.0,30.16,SW,216,2.0,11.0,87,0.00,,,-99.99,,2013-02-02 00:32:00,
2013-02-01 19:42:00,13.0,10.0,30.16,SW,216,2.0,11.0,87,0.00,,,-99.99,,2013-02-02 00:42:00,
2013-02-01 19:52:00,13.0,10.0,30.16,SW,214,3.0,11.0,87,0.00,,,-99.99,,2013-02-02 00:52:00,
2013-02-01 20:02:00,13.0,10.0,30.16,SW,218,0.0,8.0,87,0.00,,,-99.99,,2013-02-02 01:02:00,
2013-02-01 20:11:00,13.0,10.0,30.16,SW,218,0.0,8.0,87,0.00,,,-99.99,,2013-02-02 01:11:00,
2013-02-01 20:21:00,12.0,9.0,30.16,SW,219,3.0,10.0,87,0.00,,,-99.99,,2013-02-02 01:21:00,
2013-02-01 20:32:00,13.0,10.0,30.16,SSW,204,4.0,14.0,86,0.00,,,-99.99,,2013-02-02 01:32:00,
2013-02-01 20:42:00,13.0,10.0,30.16,SSW,204,4.0,14.0,86,0.00,,,-99.99,,2013-02-02 01:42:00,
2013-02-01 20:52:00,13.0,10.0,30.17,SW,228,1.0,10.0,86,0.00,,,-99.99,,2013-02-02 01:52:00,
2013-02-01 21:01:00,12.0,9.0,30.16,SW,217,6.0,16.0,87,0.00,,,-99.99,,2013-02-02 02:01:00,
2013-02-01 21:11:00,12.0,9.0,30.16,SW,217,6.0,16.0,87,0.00,,,-99.99,,2013-02-02 02:11:00,
2013-02-01 21:22:00,12.0,9.0,30.17,SW,215,3.0,11.0,88,0.00,,,-99.99,,2013-02-02 02:22:00,
2013-02-01 21:32:00,12.0,9.0,30.17,WSW,237,2.0,10.0,88,0.00,,,-99.99,,2013-02-02 02:32:00,
2013-02-01 21:42:00,12.0,9.0,30.17,WSW,237,2.0,10.0,88,0.00,,,-99.99,,2013-02-02 02:42:00,
2013-02-01 21:52:00,12.0,9.0,30.17,SSW,200,2.0,13.0,89,0.00,,,-99.99,,2013-02-02 02:52:00,
2013-02-01 22:02:00,12.0,9.0,30.17,SW,218,3.0,11.0,89,0.00,,,-99.99,,2013-02-02 03:02:00,
2013-02-01 22:11:00,12.0,9.0,30.17,South,182,4.0,13.0,89,0.00,,,-99.99,,2013-02-02 03:11:00,
2013-02-01 22:22:00,12.0,9.0,30.17,South,182,4.0,13.0,89,0.00,,,-99.99,,2013-02-02 03:22:00,
2013-02-01 22:32:00,12.0,9.0,30.17,SW,215,3.0,10.0,89,0.00,,,-99.99,,2013-02-02 03:32:00,
2013-02-01 22:42:00,12.0,9.0,30.18,SW,224,3.0,11.0,89,0.00,,,-99.99,,2013-02-02 03:42:00,
2013-02-01 22:52:00,12.0,9.0,30.18,SW,224,3.0,11.0,89,0.00,,,-99.99,,2013-02-02 03:52:00,
2013-02-01 23:02:00,12.0,9.0,30.18,SSW,208,3.0,11.0,89,0.00,,,-99.99,,2013-02-02 04:02:00,
2013-02-01 23:11:00,12.0,9.0,30.18,SSW,208,3.0,11.0,89,0.00,,,-99.99,,2013-02-02 04:11:00,
2013-02-01 23:22:00,12.0,9.0,30.19,South,188,3.0,13.0,88,0.00,,,-99.99,,2013-02-02 04:22:00,
2013-02-01 23:32:00,12.0,9.0,30.18,SW,224,1.0,7.0,88,0.00,,,-99.99,,2013-02-02 04:32:00,
2013-02-01 23:42:00,12.0,9.0,30.18,SW,224,1.0,7.0,88,0.00,,,-99.99,,2013-02-02 04:42:00,
2013-02-01 23:52:00,11.0,8.0,30.18,SW,225,1.0,12.0,89,0.00,,,-99.99,,2013-02-02 04:52:00,